Location: Arcusa
(42.3167°N, 0.0833°W)
Time: 13:09:58
(UTC+00:00)

STARLINK-60 - Pass Details

Date: 25 January 2020
Orbit: 406 x 415 km, 53.0° (Epoch: 20 February)

Event Time Altitude Azimuth Distance (km) Brightness Sun altitude
Exits shadow 06:37:22 11° 296° (WNW) 1,439 5.1 -8.3°
Maximum altitude 06:40:26 46° 223° (SW) 579 3.6 -7.8°
Drops below altitude 10° 06:43:41 10° 148° (SSE) 1,503 6.7 -7.2°
Sets 06:45:49 0° 142° (SE) 2,365 7.9 -6.8°
